Tracking 31011 objects as of 11-Jul-2025
HD Live streaming from Space Station
objects crossing your sky now

CZ-6A DEB

Track CZ-6A DEB now!
10-day predictions


NORAD ID: 54626
Int'l Code: 2022-151PC
Perigee: 648.4 km
Apogee: 769.1 km
Inclination: 98.6 °
Period: 98.8 minutes
Semi major axis: 7079 km
RCS: Unknown
Launch date: November 11, 2022
Source: People's Republic of China (PRC)
Launch site: Taiyaun Space Center, China (TSC)

Note: This is SATELLITE DEBRIS
Your satellite tracking list
Your tracking list is empty




NASA's NSSDC Master Catalog

Two Line Element Set (TLE):
1 54626U 22151PC  25191.68852138  .00003597  00000-0  76620-3 0  9991
2 54626  98.6321 230.2001 0085223 276.0668  83.0823 14.57390878138915
Source of the keplerian elements: AFSPC